[[{"header":{"parameterUnit":"m.s-1","parameterCategory":2,"la1":30.2992,"la2":30.254,"lo1":-89.0895,"lo2":-89.0443,"dy":0.0025,"dx":0.0025,"nx":19,"ny":19,"refTime":"2026-03-20T09:00:00:Z","depth":"0","parameterNumber":2,"parameterNumberName":"U-component_of_CURRENTS"},"data":[0,0,0,0.1435,0.1435,0.1401,0.1401,0.1374,0.1374,0,0,0,0,0,0,0,0,0,0,0,0.1405,0.1405,0.1434,0.1436,0.1402,0.1401,0.1374,0.1374,0,0,0,0,0,0,0,0,0,0,0,0.1405,0.1405,0.1405,0.1436,0.1402,0.1401,0.1374,0.1383,0,0,0,0,0,0,0,0,0,0,0.1408,0.1397,0.1405,0.1405,0.1436,0.1402,0.14,0.1382,0.1382,0.1411,0,0.141,0,0.1436,0.1378,0.1378,0,0,0,0.1383,0.1397,0.1407,0.1405,0.1436,0.1402,0.1402,0.1382,0.1382,0.1411,0.141,0.141,0.1435,0.1378,0.1378,0.1452,0.1452,0,0,0.1385,0.138,0.1407,0.1407,0.1436,0.1403,0.1402,0.1381,0.1375,0.141,0.141,0.1435,0.1379,0.1379,0.1451,0.1452,0,0,0,0.1426,0.1381,0.1388,0.1407,0.1424,0.1404,0.1401,0.1373,0.1382,0.141,0.1435,0.1379,0.138,0.1451,0.1451,0.127,0,0,0,0.1424,0.141,0.139,0.1383,0.1425,0.14,0.1394,0.138,0.1381,0.1435,0.1379,0.138,0.145,0.1451,0.1274,0.1276,0,0,0,0.1405,0.1408,0.141,0.1384,0.14,0.1401,0.1404,0.138,0.14,0.1378,0.138,0.145,0.1451,0.1277,0.1281,0.1285,0,0,0,0.1392,0.1383,0.1409,0.1386,0.1401,0.1351,0.1404,0.1356,0.1327,0.1379,0.145,0.1451,0.1278,0.1284,0.1287,0.1258,0.1245,0,0,0.1374,0.138,0.1361,0.1386,0.1342,0.1352,0.1285,0.1279,0.1365,0.1448,0.1449,0.1272,0.1281,0.1285,0.1315,0.13,0,0,0,0.135,0.1347,0.1327,0.1314,0.1286,0.1251,0.125,0.1257,0.1292,0.137,0.1344,0.136,0.1365,0.1354,0.1343,0.1374,0.1456,0.1456,0.1456,0.1292,0.1291,0.1271,0.1267,0.1231,0.1175,0.1139,0.1181,0.1225,0.1239,0.1258,0.1219,0.1203,0.1195,0.1225,0.1274,0.1274,0.1273,0.1273,0.1272,0.1263,0.1266,0.1257,0.121,0.1161,0.1112,0.1097,0.112,0.1176,0.1187,0.1225,0.1172,0.121,0.1262,0.1264,0.1266,0.1267,0.1267,0.1259,0.1257,0.1274,0.1252,0.1214,0.1158,0.1104,0.105,0.1068,0.103,0.1105,0.1108,0.1106,0.1039,0.1039,0.1039,0.1039,0.1039,0.1039,0.1214,0.1241,0.125,0.1242,0.1213,0.117,0.1085,0.1058,0.1011,0.1,0.1,0.1117,0.1151,0.112,0.1039,0.1039,0.1039,0.1039,0.1039,0.1138,0.1185,0.1177,0.1166,0.1121,0.1043,0.1027,0.0957,0.0945,0.0928,0.0993,0.0987,0.1075,0.1086,0.1058,0.0967,0.0967,0.0967,0.0967,0.1066,0.1104,0.1087,0.1069,0.1019,0.0972,0.0836,0.0821,0.0881,0.0931,0.0979,0.0977,0.0978,0.1063,0.1074,0.1049,0.0957,0.0957,0.0958,0.0968,0.0997,0.0963,0.1019,0.0964,0.0876,0.071,0.0664,0.0835,0.0962,0.1023,0.1024,0.1027,0.1028,0.117,0.1183,0.1148,0,0]},{"header":{"parameterUnit":"m.s-1","parameterCategory":2,"la1":30.2992,"la2":30.254,"lo1":-89.0895,"lo2":-89.0443,"dy":0.0025,"dx":0.0025,"nx":19,"ny":19,"refTime":"2026-03-20T09:00:00:Z","depth":"0","parameterNumber":3,"parameterNumberName":"V-component_of_CURRENTS"},"data":[0,0,0,-0.0032,-0.0029,0.0077,0.0077,0.0232,0.0234,0,0,0,0,0,0,0,0,0,0,0,-0.0104,-0.0104,-0.0032,-0.0029,0.0077,0.0077,0.0232,0.0234,0,0,0,0,0,0,0,0,0,0,0,-0.0104,-0.0104,-0.0104,-0.0028,0.0077,0.0077,0.0232,0.0144,0,0,0,0,0,0,0,0,0,0,0.0037,-0.0007,-0.0104,-0.0104,-0.0028,0.0077,0.0077,0.0139,0.0149,0.0194,0,0.0193,0,0.024,0.0246,0.0247,0,0,0,-0.0041,-0.0016,0.0001,-0.0104,-0.0027,0.0077,0.0026,0.0145,0.0156,0.0208,0.0195,0.0202,0.0243,0.0247,0.0248,0.0379,0.0379,0,0,-0.0047,-0.0066,-0.0007,0.0007,-0.002,0.0022,0.0029,0.0151,0.0162,0.0196,0.0207,0.0246,0.0248,0.025,0.0379,0.0379,0,0,0,-0.0056,-0.007,-0.0057,-0.0,0.0031,0.0026,0.0033,0.0156,0.0156,0.0209,0.0247,0.0249,0.0252,0.0379,0.0379,0.0374,0,0,0,-0.006,-0.0073,-0.006,-0.0067,0.0028,0.0101,0.0036,0.0146,0.0163,0.0247,0.0249,0.0253,0.0379,0.0379,0.0374,0.037,0,0,0,-0.0105,-0.0076,-0.0075,-0.0069,-0.0014,0.0099,0.0107,0.015,0.0189,0.0247,0.0254,0.0379,0.0379,0.0374,0.037,0.0369,0,0,0,-0.0113,-0.0093,-0.0076,-0.0022,-0.0015,0.0073,0.0106,0.0176,0.0223,0.025,0.0379,0.0379,0.0374,0.037,0.0369,0.0357,0.0356,0,0,-0.0088,-0.0091,-0.0054,-0.0034,0.0048,0.0059,0.0147,0.0211,0.0241,0.0338,0.0341,0.0374,0.037,0.0369,0.0369,0.0368,0,0,0,-0.0042,-0.0022,0.0008,0.0063,0.0114,0.0163,0.0222,0.0245,0.0307,0.0274,0.038,0.0378,0.0377,0.037,0.0369,0.0388,0.038,0.038,0.038,-0.003,0.0013,0.0078,0.0134,0.018,0.0238,0.0266,0.0306,0.0336,0.0352,0.0378,0.038,0.0372,0.0371,0.0391,0.0384,0.0384,0.0384,0.0384,0.0027,0.0069,0.012,0.0187,0.0224,0.0282,0.0339,0.0342,0.0379,0.0393,0.0393,0.037,0.037,0.0392,0.0384,0.0384,0.0384,0.0384,0.0384,0.0027,0.0051,0.0089,0.0164,0.023,0.029,0.0327,0.0353,0.0376,0.0373,0.0366,0.0366,0.0381,0.0373,0.0373,0.0373,0.0373,0.0373,0.0373,-0.0001,0.0043,0.0078,0.0153,0.0183,0.0251,0.0313,0.0329,0.0347,0.036,0.036,0.0386,0.0376,0.0372,0.0373,0.0373,0.0373,0.0373,0.0373,0.0034,0.0007,0.0056,0.0079,0.017,0.0211,0.026,0.0294,0.0311,0.0316,0.037,0.0355,0.0355,0.0356,0.0351,0.0346,0.0346,0.0346,0.0346,0.002,0.003,0.0071,0.0105,0.0153,0.0205,0.021,0.0249,0.0311,0.0347,0.037,0.0373,0.0374,0.0375,0.0376,0.0372,0.0373,0.0373,0.0373,0.0056,0.0052,0.0089,0.0119,0.0161,0.0195,0.0188,0.0233,0.0335,0.0377,0.04,0.0399,0.0407,0.0406,0.0412,0.0411,0.0405,0,0]}],[{"header":{"parameterUnit":"m.s-1","parameterCategory":2,"la1":30.2992,"la2":30.254,"lo1":-89.0895,"lo2":-89.0443,"dy":0.0025,"dx":0.0025,"nx":19,"ny":19,"refTime":"2026-03-20T09:00:00:Z","depth":"2","parameterNumber":2,"parameterNumberName":"U-component_of_CURRENTS"},"data":[0,0,0,-0.0022,-0.0022,0.0218,0.0221,0.0548,0.0549,0,0,0,0,0,0,0,0,0,0,0,-0.0045,-0.0045,-0.0022,-0.0022,0.0217,0.0221,0.0548,0.0549,0,0,0,0,0,0,0,0,0,0,0,-0.0044,-0.0045,-0.0046,-0.0022,0.0217,0.0221,0.0548,0.0399,0,0,0,0,0,0,0,0,0,0,0.018,0.016,-0.0045,-0.0046,-0.0022,0.0216,0.0221,0.0393,0.0408,0.0397,0,0.0371,0,0.0368,0.0557,0.0558,0,0,0,0.0134,0.0148,0.0107,-0.0046,-0.0022,0.0215,0.0154,0.0403,0.0419,0.0416,0.0375,0.0385,0.0374,0.0558,0.0559,0.0693,0.0693,0,0,0.012,0.012,0.0095,0.0115,-0.0045,0.0145,0.0159,0.0414,0.0455,0.0376,0.0392,0.0379,0.0559,0.056,0.0692,0.0693,0,0,0,-0.0022,0.0111,0.0073,0.0104,0.0089,0.0148,0.0165,0.045,0.0403,0.0395,0.0383,0.056,0.0561,0.0691,0.0692,0.0534,0,0,0,-0.0022,0.0014,0.0064,0.0086,0.0081,0.0277,0.0194,0.0391,0.0415,0.0381,0.056,0.0562,0.0691,0.0692,0.0537,0.0588,0,0,0,-0.0041,0.0015,-0.0007,0.0081,0.0096,0.0271,0.0256,0.04,0.0399,0.0558,0.0563,0.069,0.0692,0.054,0.059,0.0458,0,0,0,0.0026,-0.0041,-0.0005,-0.0005,0.0091,0.0203,0.0256,0.0432,0.0575,0.056,0.0691,0.0692,0.0541,0.0591,0.0461,0.0562,0.0555,0,0,-0.0043,-0.0046,-0.0038,-0.0008,0.0055,0.0186,0.0286,0.0485,0.0584,0.0633,0.0638,0.0536,0.059,0.0459,0.0639,0.063,0,0,0,-0.0045,-0.0024,-0.0007,0.0076,0.0139,0.0277,0.0442,0.0473,0.0603,0.0633,0.0609,0.0653,0.057,0.064,0.0634,0.0699,0.0698,0.0698,0.0698,-0.0042,0.0022,0.0039,0.0137,0.026,0.037,0.043,0.0522,0.0565,0.0615,0.0569,0.0453,0.0529,0.0525,0.0564,0.0563,0.0563,0.0562,0.0562,0.001,0.0055,0.0139,0.0216,0.031,0.0447,0.0511,0.0519,0.0449,0.0566,0.0484,0.0537,0.0508,0.0551,0.0553,0.0555,0.0556,0.0557,0.0557,0.0122,0.0112,0.0197,0.0324,0.0364,0.0471,0.0488,0.0493,0.0463,0.0334,0.0372,0.0377,0.033,0.0237,0.0237,0.0237,0.0236,0.0236,0.0236,0.025,0.0259,0.0322,0.0367,0.0368,0.0527,0.0501,0.0516,0.0429,0.0324,0.0323,0.0345,0.0356,0.0317,0.023,0.0231,0.0232,0.0232,0.0233,0.0365,0.0404,0.0449,0.0455,0.0467,0.0449,0.0527,0.0506,0.0373,0.0329,0.0272,0.0274,0.0344,0.0354,0.0321,0.0238,0.0238,0.0238,0.0238,0.0439,0.0441,0.0527,0.0471,0.0489,0.0447,0.0416,0.0354,0.0249,0.0128,0.0131,0.0198,0.0203,0.027,0.0282,0.0248,0.0146,0.0145,0.0144,0.0461,0.0483,0.0463,0.044,0.0413,0.045,0.0347,0.0245,0.0093,0.0127,-0.0023,0.0259,0.0375,0.0375,0.05,0.0509,0.0466,0,0]},{"header":{"parameterUnit":"m.s-1","parameterCategory":2,"la1":30.2992,"la2":30.254,"lo1":-89.0895,"lo2":-89.0443,"dy":0.0025,"dx":0.0025,"nx":19,"ny":19,"refTime":"2026-03-20T09:00:00:Z","depth":"2","parameterNumber":3,"parameterNumberName":"V-component_of_CURRENTS"},"data":[0,0,0,-0.043,-0.0434,-0.0395,-0.0393,-0.0076,-0.0075,0,0,0,0,0,0,0,0,0,0,0,-0.0332,-0.0332,-0.0429,-0.0434,-0.0395,-0.0393,-0.0077,-0.0074,0,0,0,0,0,0,0,0,0,0,0,-0.0331,-0.0332,-0.0333,-0.0435,-0.0396,-0.0393,-0.0077,-0.0136,0,0,0,0,0,0,0,0,0,0,-0.0191,-0.0276,-0.0332,-0.0333,-0.0436,-0.0396,-0.0392,-0.014,-0.0132,-0.0066,0,-0.009,0,-0.019,-0.0061,-0.0061,0,0,0,-0.028,-0.0284,-0.0241,-0.0333,-0.0438,-0.0397,-0.0369,-0.0136,-0.0127,-0.0055,-0.0088,-0.0081,-0.0184,-0.006,-0.0059,0.0073,0.0073,0,0,-0.0283,-0.034,-0.0249,-0.0237,-0.0465,-0.0372,-0.037,-0.0132,-0.0153,-0.0087,-0.0077,-0.0179,-0.0059,-0.0057,0.0073,0.0073,0,0,0,-0.0393,-0.0342,-0.0306,-0.0244,-0.0324,-0.0375,-0.0372,-0.016,-0.0141,-0.0075,-0.0175,-0.0058,-0.0055,0.0073,0.0073,0.0136,0,0,0,-0.0386,-0.0418,-0.0308,-0.0343,-0.0332,-0.0312,-0.0406,-0.0151,-0.0135,-0.0177,-0.0058,-0.0053,0.0073,0.0073,0.0134,0.0111,0,0,0,-0.0327,-0.0416,-0.0412,-0.0346,-0.0409,-0.0318,-0.028,-0.0148,-0.0203,-0.0061,-0.0053,0.0073,0.0073,0.0133,0.011,0.0089,0,0,0,-0.0375,-0.0389,-0.0413,-0.0438,-0.0411,-0.0302,-0.0282,-0.0201,-0.008,-0.0057,0.0073,0.0073,0.0133,0.0109,0.0089,0.0094,0.0096,0,0,-0.0402,-0.0395,-0.0391,-0.0414,-0.0381,-0.0294,-0.0194,-0.0065,-0.0059,0.0041,0.0043,0.0135,0.011,0.0089,0.0091,0.0093,0,0,0,-0.0402,-0.0383,-0.0379,-0.0377,-0.0314,-0.02,-0.0099,-0.0052,0.0045,-0.0031,0.0116,0.0096,0.0082,0.0085,0.0086,0.0073,0.0073,0.0073,0.0073,-0.0456,-0.0394,-0.0389,-0.0288,-0.0206,-0.0106,-0.001,0.0071,0.0102,0.012,0.0137,0.014,0.0146,0.0146,0.0149,0.0149,0.015,0.015,0.015,-0.0419,-0.0389,-0.0336,-0.0273,-0.0164,-0.0034,0.0114,0.0142,0.0176,0.0191,0.0175,0.0136,0.0151,0.0155,0.0154,0.0153,0.0153,0.0152,0.0152,-0.0408,-0.0389,-0.034,-0.0237,-0.0156,-0.0014,0.0078,0.0174,0.0193,0.0181,0.0146,0.0145,0.0152,0.0175,0.0175,0.0175,0.0175,0.0174,0.0174,-0.0388,-0.0356,-0.031,-0.0222,-0.0191,-0.0045,0.0068,0.0103,0.015,0.0164,0.0164,0.0146,0.0146,0.015,0.0172,0.0172,0.0173,0.0173,0.0173,-0.0285,-0.0318,-0.0247,-0.0216,-0.0128,-0.0062,0.0046,0.01,0.0096,0.0094,0.0153,0.0155,0.0115,0.0114,0.0116,0.0127,0.0127,0.0127,0.0127,-0.0253,-0.0264,-0.0202,-0.0177,-0.0104,-0.004,-0.0001,0.002,0.0035,0.0024,0.0028,0.0047,0.0053,0.0009,0.001,0.0009,-0.0008,-0.0009,-0.0009,-0.0179,-0.0192,-0.0164,-0.0176,-0.0123,-0.0029,-0.0014,0.0002,-0.0031,-0.002,-0.0051,0.0128,0.0171,0.0173,0.0116,0.0114,0.0117,0,0]}],[{"header":{"parameterUnit":"m.s-1","parameterCategory":2,"la1":30.2992,"la2":30.254,"lo1":-89.0895,"lo2":-89.0443,"dy":0.0025,"dx":0.0025,"nx":19,"ny":19,"refTime":"2026-03-20T09:00:00:Z","depth":"4","parameterNumber":2,"parameterNumberName":"U-component_of_CURRENTS"},"data":[0,0,0,-0.0785,-0.0786,-0.0866,-0.0867,-0.1001,-0.1002,0,0,0,0,0,0,0,0,0,0,0,-0.0781,-0.0781,-0.0785,-0.0786,-0.0866,-0.0867,-0.1001,-0.1002,0,0,0,0,0,0,0,0,0,0,0,-0.078,-0.0781,-0.0782,-0.0786,-0.0866,-0.0867,-0.1001,-0.0938,0,0,0,0,0,0,0,0,0,0,-0.0859,-0.0829,-0.0781,-0.0782,-0.0786,-0.0866,-0.0867,-0.0935,-0.0942,-0.0966,0,-0.0981,0,-0.0975,-0.101,-0.101,0,0,0,-0.081,-0.0823,-0.0849,-0.0782,-0.0786,-0.0866,-0.0837,-0.0939,-0.0947,-0.0975,-0.0983,-0.0987,-0.0977,-0.1011,-0.1011,-0.1238,-0.1239,0,0,-0.0806,-0.0792,-0.0843,-0.0854,-0.0812,-0.0834,-0.0839,-0.0944,-0.0952,-0.0983,-0.099,-0.0979,-0.1011,-0.1012,-0.1236,-0.1238,0,0,0,-0.0776,-0.0789,-0.0813,-0.0849,-0.085,-0.0836,-0.0842,-0.0948,-0.0957,-0.0991,-0.0981,-0.1012,-0.1013,-0.1234,-0.1237,-0.1248,0,0,0,-0.0775,-0.077,-0.0811,-0.0803,-0.0848,-0.089,-0.0843,-0.0951,-0.0961,-0.098,-0.1012,-0.1014,-0.1232,-0.1236,-0.1244,-0.1285,0,0,0,-0.0776,-0.0769,-0.0781,-0.0802,-0.0824,-0.0888,-0.0905,-0.0953,-0.0954,-0.101,-0.1015,-0.1231,-0.1235,-0.124,-0.1279,-0.1308,0,0,0,-0.0756,-0.0768,-0.0782,-0.0793,-0.0823,-0.0896,-0.0904,-0.0977,-0.1031,-0.1013,-0.1233,-0.1237,-0.1239,-0.1274,-0.1304,-0.0934,0,0,0,-0.0756,-0.0768,-0.0774,-0.0787,-0.0833,-0.0886,-0.097,-0.1046,-0.1104,-0.12,-0.1205,-0.1245,-0.1278,-0.1307,-0.117,0,0,0,0,-0.0763,-0.0773,-0.0793,-0.0817,-0.0874,-0.0964,-0.1035,-0.1092,-0.1229,-0.1147,-0.1323,-0.1346,-0.1361,-0.1139,-0.1256,-0.1255,-0.1255,-0.1254,-0.1254,-0.0734,-0.0761,-0.0791,-0.0851,-0.0915,-0.1032,-0.114,-0.1251,-0.1269,-0.1363,-0.1409,-0.1524,-0.1295,-0.1455,-0.1455,-0.1455,-0.1455,-0.1455,-0.1455,-0.0701,-0.0725,-0.0788,-0.0851,-0.0967,-0.1075,-0.1247,-0.1316,-0.1504,-0.1497,-0.1509,-0.1237,-0.1458,-0.1458,-0.1457,-0.1457,-0.1457,-0.1457,-0.1456,-0.0688,-0.071,-0.077,-0.0852,-0.0986,-0.1125,-0.1246,-0.144,-0.1547,-0.1623,-0.138,-0.1561,-0.1494,-0.1616,-0.1616,-0.1616,-0.1617,-0.1617,-0.1617,-0.0651,-0.0705,-0.0747,-0.0851,-0.0931,-0.107,-0.1268,-0.1287,-0.1418,-0.141,-0.1641,-0.1579,-0.1573,-0.1508,-0.1622,-0.1622,-0.1621,-0.162,-0.162,-0.0614,-0.0677,-0.0697,-0.0755,-0.0826,-0.0907,-0.1069,-0.1059,-0.1065,-0.1037,-0.128,-0.1295,-0.1261,-0.1265,-0.1185,-0.1209,-0.1204,-0.12,0,-0.0615,-0.062,-0.0639,-0.0631,-0.0634,-0.0777,-0.0643,-0.0658,-0.087,-0.0955,-0.1084,-0.1369,-0.1376,-0.1339,-0.1335,-0.1243,0,0,0,-0.0574,-0.0581,-0.0558,-0.0541,-0.0539,-0.053,-0.0615,-0.0607,-0.0912,-0.0655,-0.109,-0.1119,-0.1069,-0.1638,-0.1624,-0.1618,-0.1512,0,0]},{"header":{"parameterUnit":"m.s-1","parameterCategory":2,"la1":30.2992,"la2":30.254,"lo1":-89.0895,"lo2":-89.0443,"dy":0.0025,"dx":0.0025,"nx":19,"ny":19,"refTime":"2026-03-20T09:00:00:Z","depth":"4","parameterNumber":3,"parameterNumberName":"V-component_of_CURRENTS"},"data":[0,0,0,0.0052,0.0051,0.0032,0.0032,0.0024,0.0024,0,0,0,0,0,0,0,0,0,0,0,0.0064,0.0064,0.0052,0.0051,0.0032,0.0032,0.0024,0.0024,0,0,0,0,0,0,0,0,0,0,0,0.0064,0.0064,0.0064,0.0051,0.0032,0.0032,0.0024,0.0036,0,0,0,0,0,0,0,0,0,0,0.0053,0.0065,0.0064,0.0064,0.0051,0.0032,0.0032,0.0037,0.0036,0.0034,0,0.0028,0,0.0019,0.0023,0.0023,0,0,0,0.006,0.0066,0.0053,0.0064,0.005,0.0032,0.0043,0.0036,0.0035,0.0032,0.0028,0.0027,0.0019,0.0023,0.0023,0.0025,0.0026,0,0,0.0061,0.007,0.0054,0.0052,0.0042,0.0044,0.0042,0.0035,0.0037,0.0028,0.0027,0.0019,0.0022,0.0022,0.0025,0.0025,0,0,0,0.0058,0.007,0.0057,0.0052,0.0044,0.0043,0.0041,0.0038,0.0031,0.0027,0.0019,0.0022,0.0022,0.0025,0.0025,-0.0081,0,0,0,0.0059,0.0068,0.0058,0.0064,0.0044,0.0039,0.0045,0.0032,0.003,0.0019,0.0022,0.0022,0.0025,0.0025,-0.0078,-0.0146,0,0,0,0.0066,0.0069,0.0063,0.0064,0.005,0.0039,0.0032,0.0031,0.0025,0.0023,0.0022,0.0025,0.0025,-0.0076,-0.0141,-0.0138,0,0,0,0.008,0.0036,0.0064,0.0005,0.005,-0.0005,0.0032,0.0013,0.0007,0.0022,0.0025,0.0025,-0.0076,-0.0137,-0.0136,-0.0102,0,0,0,0.0021,0.003,-0.0012,0.0011,-0.0077,-0.0002,-0.0068,-0.0044,0.0017,0.0029,0.0029,-0.0079,-0.014,-0.0138,-0.008,0,0,0,0,-0.0035,-0.0061,-0.0085,-0.0122,-0.0139,-0.0149,-0.0109,-0.0079,-0.0043,0.0014,-0.0042,-0.0077,-0.0072,-0.0042,0.0027,0.0027,0.0027,0.0027,0.0027,-0.0087,-0.012,-0.0194,-0.023,-0.0255,-0.024,-0.0236,-0.0172,-0.0113,-0.0088,-0.0135,-0.0172,-0.0142,-0.0089,-0.009,-0.009,-0.0091,-0.0091,-0.0091,-0.0182,-0.023,-0.0261,-0.0347,-0.0358,-0.0384,-0.0345,-0.0294,-0.0261,-0.0195,-0.0184,-0.0122,-0.0101,-0.0099,-0.0097,-0.0096,-0.0096,-0.0095,-0.0094,-0.0213,-0.0244,-0.0297,-0.0402,-0.0457,-0.0458,-0.0464,-0.0438,-0.0348,-0.0362,-0.026,-0.0227,-0.0248,-0.0326,-0.0326,-0.0327,-0.0327,-0.0327,-0.0327,-0.0219,-0.0278,-0.0359,-0.0454,-0.0505,-0.0531,-0.0538,-0.0513,-0.0463,-0.038,-0.0374,-0.025,-0.0242,-0.0259,-0.0332,-0.0331,-0.033,-0.033,-0.033,-0.0273,-0.0284,-0.0404,-0.0471,-0.0568,-0.0563,-0.0578,-0.0532,-0.0505,-0.0454,-0.0363,-0.036,-0.0312,-0.0303,-0.032,-0.0414,-0.0414,-0.0414,0,-0.0283,-0.0303,-0.0439,-0.0531,-0.0579,-0.0578,-0.0516,-0.0496,-0.0458,-0.0427,-0.0483,-0.038,-0.0376,-0.0322,-0.0313,-0.0332,0,0,0,-0.0311,-0.0341,-0.0428,-0.0522,-0.0579,-0.0511,-0.0489,-0.0471,-0.0446,-0.0459,-0.041,-0.0411,-0.041,-0.0345,-0.0265,-0.0255,-0.0277,0,0]}]]